           3 14  16 04.27  -12 07.2   1.369  2.241    45.8 / 216  17.7   94  .15

           4 14  16 02.44  -12 44.3   1.380  2.244    44.9 / 215  17.7   81  .23

           5 14  16 00.66  -13 20.9   1.392  2.246    44.0 / 215  17.7   67  .33

NAKANO

         **** Don't distribute anyone except personal use only ****

                (C) Copyright 2003 OAA/ComputingSection

write mail from CFAD0::NAKANO on 2003-06-07 03:41:46(JST).

 

◎C/2003 H2の軌道と予報位置です



 すでにMPECにもあるとおり,この彗星は周期が220年ほどの長周期彗星で

した. CCD全光度は,5月23日に17.5等(久万;中村彰正),24日に17.7等,

26日に18.0等(P. C. Sherrord)と報告されています.



    C/2003 H2 (LINEAR)                                                    

T 2003 May 17.71585 TT                                  Nakano

q   2.1775523            (2000.0)            P               Q

z  +0.0276600      Peri.  154.97582     -0.27323062     +0.16879968

 +/-0.0009308      Node    79.85267     -0.96157897     -0.07521462

e   0.9397689      Incl.   74.16916     +0.02666278     -0.98277639

P 217.4 years

From 98 observations 2003 Apr. 24-May 26.



Date/        TT  R.A.(2000) Decl.     Delta   r     Daily motion  Mag.  Moon Age

              h    h  m       。  ,                      ,  / PA 。  m1      。

2003 May  25 16  17 36.80  +12 58.8   1.306  2.179    45.9 / 228  17.5  101  .25

          26 16  17 34.47  +12 28.2   1.299  2.180    46.8 / 228  17.5  111  .17

          27 16  17 32.10  +11 56.8   1.292  2.180    47.7 / 228  17.4  121  .11

          28 16  17 29.70  +11 24.6   1.285  2.181    48.6 / 227  17.4  129  .06

          29 16  17 27.27  +10 51.6   1.279  2.182    49.5 / 227  17.4  137  .02

          30 16  17 24.82  +10 17.9   1.273  2.182    50.3 / 227  17.4  143  .00

          31 16  17 22.34  +09 43.4   1.267  2.183    51.1 / 226  17.4  146  .00

     June  1 16  17 19.84  +09 08.2   1.262  2.184    51.8 / 226  17.4  144  .02

           2 16  17 17.32  +08 32.3   1.258  2.185    52.5 / 226  17.4  139  .06

           3 16  17 14.79  +07 55.7   1.254  2.186    53.1 / 226  17.4  132  .11

           4 16  17 12.24  +07 18.5   1.250  2.187    53.7 / 225  17.4  122  .19

           5 16  17 09.68  +06 40.7   1.247  2.188    54.2 / 225  17.4  111  .27

           6 16  17 07.12  +06 02.3   1.245  2.189    54.7 / 225  17.4  100  .37

           7 16  17 04.54  +05 23.4   1.243  2.190    55.1 / 224  17.4   88  .48

           8 16  17 01.97  +04 43.9   1.241  2.192    55.4 / 224  17.4   75  .59

           9 16  16 59.40  +04 04.1   1.240  2.193    55.7 / 224  17.4   62  .70

          10 16  16 56.83  +03 23.8   1.239  2.194    55.9 / 223  17.4   50  .80

          11 16  16 54.27  +02 43.2   1.239  2.196    56.1 / 223  17.4   38  .89

          12 16  16 51.71  +02 02.2   1.240  2.197    56.1 / 223  17.4   28  .95

          13 16  16 49.17  +01 21.0   1.241  2.199    56.2 / 222  17.4   25  .99

          14 16  16 46.64  +00 39.6   1.243  2.200    56.1 / 222  17.4   30 1.00

          15 16  16 44.12  -00 02.0   1.245  2.202    56.0 / 222  17.4   40  .98

          16 16  16 41.63  -00 43.7   1.247  2.204    55.9 / 222  17.4   52  .93

          17 16  16 39.16  -01 25.5   1.251  2.205    55.7 / 221  17.4   64  .87

          18 16  16 36.71  -02 07.3   1.254  2.207    55.4 / 221  17.4   77  .78

          19 16  16 34.28  -02 49.1   1.258  2.209    55.0 / 221  17.4   90  .69

          20 16  16 31.89  -03 30.9   1.263  2.211    54.6 / 220  17.5  102  .59

          21 16  16 29.52  -04 12.5   1.268  2.213    54.2 / 220  17.5  114  .50

          22 16  16 27.19  -04 54.0   1.274  2.215    53.7 / 220  17.5  126  .40

          23 16  16 24.89  -05 35.2   1.280  2.217    53.1 / 219  17.5  138  .31

          24 16  16 22.63  -06 16.3   1.287  2.219    52.5 / 219  17.5  149  .22

          25 16  16 20.40  -06 57.0   1.294  2.221    51.9 / 219  17.5  159  .15

          26 16  16 18.22  -07 37.5   1.302  2.224    51.2 / 218  17.5  166  .09

          27 16  16 16.08  -08 17.6   1.310  2.226    50.5 / 218  17.6  164  .04

          28 16  16 13.97  -08 57.4   1.319  2.228    49.8 / 218  17.6  155  .01

          29 16  16 11.92  -09 36.8   1.328  2.231    49.0 / 217  17.6  144  .00

          30 16  16 09.90  -10 15.7   1.338  2.233    48.2 / 217  17.6  132  .01

     July  1 16  16 07.94  -10 54.2   1.348  2.236    47.4 / 217  17.6  119  .04

NAKANO

         **** Don't distribute anyone except personal use only ****

                (C) Copyright 2003 OAA/ComputingSection

write mail from CFAD0::NAKANO on 2003-05-27 01:06:04(JST).

 

◎C/2003 H2の軌道と予報位置です



 5月6日のシェロ−ドの観測では,CCD全光度が17.3等,視直径が12"との

ことです.



    C/2003 H2 (LINEAR)                                                    

T 2003 May 22.86339 TT                                  Nakano

q   2.1926457            (2000.0)            P               Q

                   Peri.  157.17367     -0.26539900     +0.16279914

                   Node    79.54530     -0.96409295     -0.03521333

e   1.0            Incl.   75.09131     -0.00938896     -0.98603066

From 68 observations 2003 Apr. 24-May 10.

 

Date/        TT  R.A.(2000) Decl.     Delta   r     Daily motion  Mag.  Moon Age

              h    h  m       。  ,                      ,  / PA 。  m1      。

2003 May  10 14  18 06.99  +19 04.4   1.480  2.197    30.4 / 231  17.8  107  .62

          11 14  18 05.31  +18 45.5   1.468  2.197    31.4 / 231  17.8   97  .72

          12 14  18 03.59  +18 25.8   1.455  2.196    32.4 / 231  17.7   87  .82

          13 14  18 01.82  +18 05.4   1.443  2.195    33.5 / 231  17.7   76  .90

          14 14  18 00.00  +17 44.3   1.431  2.195    34.5 / 231  17.7   65  .96

          15 14  17 58.13  +17 22.5   1.420  2.194    35.6 / 231  17.7   56  .99

          16 14  17 56.21  +16 59.9   1.409  2.194    36.7 / 230  17.7   48 1.00

          17 14  17 54.25  +16 36.5   1.398  2.194    37.7 / 230  17.6   43  .97

          18 14  17 52.23  +16 12.3   1.387  2.193    38.8 / 230  17.6   43  .91

          19 14  17 50.18  +15 47.3   1.376  2.193    39.8 / 230  17.6   46  .84

          20 14  17 48.07  +15 21.6   1.366  2.193    40.9 / 230  17.6   53  .75

          21 14  17 45.93  +14 55.0   1.357  2.193    41.9 / 229  17.6   62  .65

          22 14  17 43.74  +14 27.6   1.347  2.193    43.0 / 229  17.6   71  .55

          23 14  17 41.51  +13 59.4   1.338  2.193    44.0 / 229  17.5   81  .44

          24 14  17 39.24  +13 30.4   1.329  2.193    45.0 / 229  17.5   91  .35

          25 14  17 36.94  +13 00.5   1.321  2.193    46.0 / 228  17.5  101  .26

          26 14  17 34.60  +12 29.8   1.313  2.193    46.9 / 228  17.5  110  .18

          27 14  17 32.22  +11 58.4   1.306  2.193    47.9 / 228  17.5  120  .11

          28 14  17 29.81  +11 26.1   1.298  2.194    48.8 / 227  17.5  129  .06

          29 14  17 27.37  +10 53.0   1.292  2.194    49.7 / 227  17.5  137  .02

          30 14  17 24.91  +10 19.1   1.286  2.194    50.5 / 227  17.5  143  .00

          31 14  17 22.42  +09 44.5   1.280  2.195    51.3 / 226  17.4  146  .00

     June  1 14  17 19.91  +09 09.2   1.274  2.196    52.0 / 226  17.4  145  .02

           2 14  17 17.38  +08 33.1   1.270  2.196    52.8 / 226  17.4  140  .05

           3 14  17 14.83  +07 56.4   1.265  2.197    53.4 / 226  17.4  132  .11

           4 14  17 12.26  +07 19.0   1.261  2.198    54.0 / 225  17.4  123  .18

           5 14  17 09.69  +06 41.0   1.258  2.198    54.6 / 225  17.4  112  .26

           6 14  17 07.10  +06 02.4   1.255  2.199    55.0 / 225  17.4  101  .36

           7 14  17 04.51  +05 23.2   1.253  2.200    55.5 / 224  17.4   89  .47

           8 14  17 01.91  +04 43.5   1.251  2.201    55.8 / 224  17.4   76  .58

           9 14  16 59.32  +04 03.4   1.249  2.202    56.2 / 224  17.4   63  .69

          10 14  16 56.72  +03 22.8   1.249  2.203    56.4 / 223  17.4   51  .79

NAKANO

         **** Don't distribute anyone except personal use only ****

                (C) Copyright 2003 OAA/ComputingSection

write mail from CFAD0::NAKANO on 2003-05-12 02:09:25(JST).

 

◎C/2003 H2の軌道と予報位置です



 豊中の江崎裕介氏から観測の報告があって計算したものですが,淡い像の

ため,精度が悪く,省きました.でも,動きが違います.別物を測定してい

ませんか?



    C/2003 H2 (LINEAR)                                                    

T 2003 May  26.90824 TT                                 Nakano

q   2.1733137            (2000.0)            P               Q

                   Peri.  159.16428     -0.26299764     +0.16788658

                   Node    79.27571     -0.96383772     -0.00182924

e   1.0            Incl.   75.23203     -0.04300110     -0.98580462

From 35 observations 2003 Apr. 24-27.

 

Date/        TT  R.A.(2000) Decl.     Delta   r     Daily motion  Mag.  Moon Age

              h    h  m       。  ,                      ,  / PA 。  m1      。

2003 Apr. 28 18  18 22.91  +22 02.0   1.628  2.198    19.2 / 231  18.0   93  .07

          29 18  18 21.84  +21 49.9   1.613  2.196    20.1 / 231  18.0  101  .03

          30 18  18 20.71  +21 37.3   1.599  2.195    21.0 / 231  17.9  109  .01

     May   1 18  18 19.54  +21 24.2   1.584  2.193    21.9 / 232  17.9  116  .00

           2 18  18 18.31  +21 10.6   1.570  2.192    22.8 / 232  17.9  123  .01

           3 18  18 17.03  +20 56.4   1.556  2.190    23.8 / 232  17.9  128  .04

           4 18  18 15.70  +20 41.6   1.541  2.189    24.7 / 232  17.8  132  .09

           5 18  18 14.32  +20 26.3   1.528  2.187    25.7 / 232  17.8  133  .15

           6 18  18 12.88  +20 10.4   1.514  2.186    26.7 / 232  17.8  132  .23

           7 18  18 11.39  +19 53.8   1.500  2.185    27.7 / 232  17.8  128  .32

           8 18  18 09.85  +19 36.6   1.487  2.184    28.8 / 232  17.8  122  .42

           9 18  18 08.26  +19 18.7   1.474  2.183    29.8 / 232  17.7  115  .53

          10 18  18 06.62  +19 00.1   1.461  2.181    30.8 / 231  17.7  106  .63

          11 18  18 04.92  +18 40.9   1.448  2.181    31.9 / 231  17.7   96  .74

          12 18  18 03.18  +18 20.9   1.435  2.180    33.0 / 231  17.7   85  .84

